Regional Weather Roundup
Issued by NWS

Home | Current Version | Previous Version | Graphics & Text | Print | Product List | Glossary On
Versions: 1 2 3 4 5 6 7 8 9 10 11 12 13 14 15 16 17 18 19 20 21 22 23 24 25 26 27 28 29 30 31 32 33 34 35 36 37 38 39 40 41 42 43 44 45 46 47 48 49 50
126
ASUS43 KLOT 241608
RWRIL

ILLINOIS REGIONAL WEATHER ROUNDUP
NATIONAL WEATHER SERVICE CHICAGO/ROMEOVILLE IL
1100 AM CDT FRI MAR 24 2017

NOTE: "FAIR" INDICATES FEW OR NO CLOUDS BELOW 12,000 FEET WITH NO
SIGNIFICANT WEATHER AND/OR OBSTRUCTIONS TO VISIBILITY.

* THESE STATIONS ARE NOT UNDER NWS QUALITY CONTROL. THEY ALSO MAY NOT
  REPORT WEATHER SUCH AS PRECIPITATION OR FOG.

ILZ001-002-007-009-015-016-024-241700-
NORTHWEST ILLINOIS

CITY           SKY/WX    TMP DP  RH WIND       PRES   REMARKS
MOLINE         MOSUNNY   75  48  38 SW17G26   29.86S
STERLING*      SUNNY     71  49  45 SW17G28   29.89S
SAVANNA*       CLOUDY    70  48  46 SW14G22   29.87R
$$

ILZ003-004-008-010-011-017-018-241700-
NORTH CENTRAL ILLINOIS

CITY           SKY/WX    TMP DP  RH WIND       PRES   REMARKS
ROCKFORD       CLOUDY    70  48  45 SW18G32   29.89S
FREEPORT*      CLOUDY    65  49  56 SW16      29.89S
ROCHELLE*      SUNNY     71  50  47 SW25G32   29.90S
DE KALB*         N/A     70  50  48 SW22G29   29.92S
PERU*          SUNNY     69  48  46 SW18G25   29.93S
$$

ILZ005-006-012>014-019>023-241700-
NORTHEAST ILLINOIS

CITY           SKY/WX    TMP DP  RH WIND       PRES   REMARKS
CHICAGO-OHARE  CLOUDY    70  49  47 SW17G31   29.91S
CHICAGO-MIDWAY PTSUNNY   70  50  49 SW17G35   29.93F
AURORA         SUNNY     72  50  45 SW21G30   29.92S
LANSING*       CLOUDY    68  55  63 SW18G25   29.96F
JOLIET*        SUNNY     70  52  52 SW14G22   29.94S
WAUKEGAN       MOSUNNY   67  50  54 SW21      29.89S
DUPAGE AIRPORT SUNNY     72  51  47 SW25G32   29.92R
KANKAKEE*      SUNNY     71  52  50 S21G29    29.99F
WHEELING       MOSUNNY   68  51  54 SW16G25   29.92R
MORRIS*        SUNNY     72  50  46 SW23      29.93S
ROMEOVILLE*    SUNNY     69  54  60 SW18G30   29.94S
NORTHERLY ISL    N/A     66  47  50 S21         N/A
$$

LMZ740>746-241700-
SOUTHERN LAKE MICHIGAN

STATION/POSITION SKY/WX   TEMP    WIND        PRES    VSBY  WAVE
                          AIR SEA DIR/SP/G                  HT/PER
                          (F)     (DEG/KT/KT) (MB)    (MI)  (FT/S)
HARRISON CRIB              64     200/ 26/ 28   N/A
BURNHAM HARBOR             67     180/ 16/ 19   N/A
CALUMET HARBOR             65     200/ 18/ 24 1013.3F
BURNS HARBOR               65     200/ 23/ 31 1014.6F
MICHIGAN CITY              65     200/ 23/ 27   N/A
$$

ILZ025>027-034>036-040-047-049-050-058-095>099-241700-
WEST-CENTRAL ILLINOIS

CITY           SKY/WX    TMP DP  RH WIND       PRES   REMARKS
QUINCY         SUNNY     75  49  39 S23       29.91F
GALESBURG*     SUNNY     71  50  47 S21G26    29.90F
MACOMB*        SUNNY     73  49  43 S17G23    29.94S
JACKSONVILLE*  SUNNY     71  54  55 S17G25    29.96S
PITTSFIELD*    SUNNY     75  53  45 S17       29.95S
$$

ILZ028>032-037-038-041>044-048-051>054-059>061-241700-
CENTRAL ILLINOIS

CITY           SKY/WX    TMP DP  RH WIND       PRES   REMARKS
PONTIAC        SUNNY     73  52  48 SW24      29.97F
BLOOMINGTON    SUNNY     72  53  51 SW20G29   29.99R
DECATUR        SUNNY     71  54  54 S22G31    30.03R
PEORIA         SUNNY     73  52  47 SW13      29.94F
LACON*         SUNNY     70  50  49 SW16G23   29.93F
LINCOLN*       SUNNY     72  56  57 S14G28    29.98S
SPRINGFIELD    SUNNY     72  55  55 S17G26    29.98S
TAYLORVILLE    SUNNY     70  57  64 S20G30    30.02S
$$

ILZ033-039-045-046-055>057-062-063-241700-
EAST-CENTRAL ILLINOIS

CITY           SKY/WX    TMP DP  RH WIND       PRES   REMARKS
CHAMPAIGN      SUNNY     71  54  54 S26G35    30.03S
RANTOUL*       SUNNY     71  56  58 SW17G26   30.03S
MATTOON        SUNNY     67  56  67 S18G26    30.08R
PARIS*         SUNNY     69  57  65 SW23G35   30.10R
$$

ILZ079-100>102-241700-
SOUTHWEST ILLINOIS

CITY           SKY/WX    TMP DP  RH WIND       PRES   REMARKS
ALTON          MOSUNNY   68  55  64 S18G24    30.02S
BELLEVILLE     MOSUNNY   71  59  66 S23G30    30.02F
CAHOKIA*       MOSUNNY   74  56  53 S17       30.01S
SPARTA*        PTSUNNY   67  58  72 S17G32    30.08S
$$

ILZ064>066-069>071-074>076-080>082-084>086-088>090-092>094-241700-
SOUTH-CENTRAL ILLINOIS

CITY           SKY/WX    TMP DP  RH WIND       PRES   REMARKS
CARBONDALE     CLOUDY    66  59  78 S18G39    30.12R
CAIRO*         CLOUDY    67  59  76 S17       30.17R
EFFINGHAM*     MOSUNNY   70  59  67 S15G23    30.10S
MARION         CLOUDY    66  59  77 S17       30.14R
MT. VERNON     CLOUDY    68  59  73 S23G32    30.11S
CENTRALIA*     PTSUNNY   69  60  74 S17G25    30.08S
SALEM*         MOSUNNY   70  58  66 S20       30.09S
METROPOLIS*    CLOUDY    68  58  70 S10G21    30.18S
$$

ILZ067-068-072-073-078-083-087-091-241700-
SOUTHEAST ILLINOIS

CITY           SKY/WX    TMP DP  RH WIND       PRES   REMARKS
LAWRENCEVILLE  CLOUDY    68  57  68 S22G29    30.15R
FLORA*         CLOUDY    69  59  71 S21G26    30.12R
FAIRFIELD*     CLOUDY    68  58  70 S13       30.12S
HARRISBURG*    CLOUDY    68  59  73 S15G21    30.15S
ROBINSON*      MOSUNNY   68  56  65 S20G26    30.14R
CARMI*         PTSUNNY   69  58  70 S25G31    30.15R
$$

ABBREVIATIONS USED IN REMARKS
   TC - TEMPERATURE IN CELSIUS
  WCI - WIND CHILL INDEX
   HX - HEAT INDEX
  VSB - VISIBILITY
$$





USA.gov is the U.S. government's official web portal to all federal, state and local government web resources and services.